Time,TemperatureF,DewpointF,PressureIn,WindDirection,WindDirectionDegrees,WindSpeedMPH,WindSpeedGustMPH,Humidity,HourlyPrecipIn,Conditions,Clouds,dailyrainin,SoftwareType,DateUTC
2013-02-27 00:00:00,27.7,26.2,29.60,NE,45,13.2,23.3,94,0.00,,,0.00,WUHU21623XXSP,2013-02-27 06:00:00,
2013-02-27 00:05:00,28.0,26.5,29.60,NE,45,15.7,15.7,94,0.00,,,0.00,WUHU21623XXSP,2013-02-27 06:05:00,
2013-02-27 00:10:00,28.0,26.5,29.60,NNE,22,12.5,15.7,94,0.00,,,0.00,WUHU21623XXSP,2013-02-27 06:10:00,
2013-02-27 00:15:00,27.7,26.2,29.60,NE,45,20.4,20.4,94,0.00,,,0.00,WUHU21623XXSP,2013-02-27 06:15:00,
2013-02-27 00:20:00,27.9,26.3,29.60,NNE,22,6.5,20.4,94,0.00,,,0.00,WUHU21623XXSP,2013-02-27 06:20:00,
2013-02-27 00:25:00,27.7,26.2,29.60,NE,45,7.4,15.7,94,0.00,,,0.00,WUHU21623XXSP,2013-02-27 06:25:00,
2013-02-27 00:30:00,27.7,26.2,29.60,North,0,8.9,15.7,94,0.00,,,0.00,WUHU21623XXSP,2013-02-27 06:30:00,
2013-02-27 00:35:00,27.7,26.2,29.60,NNE,22,8.5,12.5,94,0.00,,,0.00,WUHU21623XXSP,2013-02-27 06:35:00,
2013-02-27 00:40:00,27.7,26.2,29.60,NNE,22,13.0,13.0,94,0.00,,,0.00,WUHU21623XXSP,2013-02-27 06:40:00,
2013-02-27 00:45:00,27.9,26.3,29.60,North,0,15.2,15.2,94,0.00,,,0.00,WUHU21623XXSP,2013-02-27 06:45:00,
2013-02-27 00:50:00,28.0,26.5,29.61,NNE,22,10.7,15.2,94,0.00,,,0.00,WUHU21623XXSP,2013-02-27 06:50:00,
2013-02-27 00:55:00,28.0,26.2,29.60,NE,45,11.9,11.9,94,0.00,,,0.00,WUHU21623XXSP,2013-02-27 06:55:00,
2013-02-27 01:00:00,28.0,26.5,29.60,North,0,8.1,15.4,94,0.00,,,0.00,WUHU21623XXSP,2013-02-27 07:00:00,
2013-02-27 01:05:00,28.0,26.5,29.61,NNE,22,12.8,15.4,94,0.00,,,0.00,WUHU21623XXSP,2013-02-27 07:05:00,
2013-02-27 01:10:00,28.0,26.5,29.60,North,0,5.1,12.8,94,0.00,,,0.00,WUHU21623XXSP,2013-02-27 07:10:00,
2013-02-27 01:15:00,28.0,26.5,29.60,NE,45,8.7,9.4,94,0.00,,,0.00,WUHU21623XXSP,2013-02-27 07:15:00,
2013-02-27 01:20:00,28.0,26.5,29.60,NNE,22,15.9,15.9,94,0.00,,,0.00,WUHU21623XXSP,2013-02-27 07:20:00,
2013-02-27 01:25:00,28.0,26.5,29.61,NNE,22,7.8,15.9,94,0.00,,,0.00,WUHU21623XXSP,2013-02-27 07:25:00,
2013-02-27 01:30:00,28.0,26.5,29.60,North,0,13.2,13.4,94,0.00,,,0.00,WUHU21623XXSP,2013-02-27 07:30:00,
2013-02-27 01:35:00,28.0,26.5,29.60,NNE,22,9.6,13.4,94,0.00,,,0.00,WUHU21623XXSP,2013-02-27 07:35:00,
2013-02-27 01:40:00,28.0,26.5,29.60,NNE,22,11.2,13.9,94,0.00,,,0.00,WUHU21623XXSP,2013-02-27 07:40:00,
2013-02-27 01:45:00,28.0,26.5,29.60,NNE,22,11.2,13.9,94,0.00,,,0.00,WUHU21623XXSP,2013-02-27 07:45:00,
2013-02-27 01:50:00,28.0,26.5,29.61,NNE,22,10.5,11.2,94,0.00,,,0.00,WUHU21623XXSP,2013-02-27 07:50:00,
2013-02-27 01:55:00,28.0,26.5,29.61,NNE,22,11.9,11.9,94,0.00,,,0.00,WUHU21623XXSP,2013-02-27 07:55:00,
2013-02-27 02:00:00,28.0,26.5,29.61,North,0,9.2,13.0,94,0.00,,,0.00,WUHU21623XXSP,2013-02-27 08:00:00,
2013-02-27 02:05:00,28.0,26.5,29.61,NE,45,14.1,14.1,94,0.00,,,0.00,WUHU21623XXSP,2013-02-27 08:05:00,
2013-02-27 02:10:00,28.0,26.5,29.61,NNE,22,11.0,14.1,94,0.00,,,0.00,WUHU21623XXSP,2013-02-27 08:10:00,
2013-02-27 02:15:00,28.0,26.5,29.61,NNE,22,21.0,21.0,94,0.00,,,0.00,WUHU21623XXSP,2013-02-27 08:15:00,
2013-02-27 02:20:00,28.0,26.5,29.61,WNW,292,5.4,21.0,94,0.00,,,0.00,WUHU21623XXSP,2013-02-27 08:20:00,
2013-02-27 02:25:00,28.0,26.5,29.61,NNE,22,14.8,17.9,94,0.00,,,0.00,WUHU21623XXSP,2013-02-27 08:25:00,
2013-02-27 02:30:00,28.0,26.3,29.61,NNE,22,3.8,17.9,93,0.00,,,0.00,WUHU21623XXSP,2013-02-27 08:30:00,
2013-02-27 02:35:00,28.0,26.3,29.60,NNE,22,16.1,16.1,93,0.00,,,0.00,WUHU21623XXSP,2013-02-27 08:35:00,
2013-02-27 02:40:00,28.0,26.3,29.60,NW,315,11.6,16.1,93,0.00,,,0.00,WUHU21623XXSP,2013-02-27 08:40:00,
2013-02-27 02:45:00,28.0,26.3,29.59,North,0,11.2,16.1,93,0.00,,,0.00,WUHU21623XXSP,2013-02-27 08:45:00,
2013-02-27 02:50:00,27.9,26.1,29.59,North,0,13.4,13.4,93,0.00,,,0.00,WUHU21623XXSP,2013-02-27 08:50:00,
2013-02-27 02:55:00,27.9,26.1,29.59,NNE,22,11.2,13.4,93,0.00,,,0.00,WUHU21623XXSP,2013-02-27 08:55:00,
2013-02-27 03:00:00,27.9,26.1,29.59,NNE,22,2.9,11.2,93,0.00,,,0.00,WUHU21623XXSP,2013-02-27 09:00:00,
2013-02-27 03:05:00,27.9,26.1,29.59,NNE,22,7.2,7.2,93,0.00,,,0.00,WUHU21623XXSP,2013-02-27 09:05:00,
2013-02-27 03:10:00,27.9,26.1,29.59,East,90,2.0,7.2,93,0.00,,,0.00,WUHU21623XXSP,2013-02-27 09:10:00,
2013-02-27 03:15:00,27.9,26.1,29.59,North,0,5.8,5.8,93,0.00,,,0.00,WUHU21623XXSP,2013-02-27 09:15:00,
2013-02-27 03:20:00,27.7,25.9,29.59,NNE,22,4.5,5.8,93,0.00,,,0.00,WUHU21623XXSP,2013-02-27 09:20:00,
2013-02-27 03:25:00,27.7,25.9,29.59,NNE,22,17.7,17.7,93,0.00,,,0.00,WUHU21623XXSP,2013-02-27 09:25:00,
2013-02-27 03:30:00,27.7,25.9,29.59,NNE,22,12.8,17.7,93,0.00,,,0.00,WUHU21623XXSP,2013-02-27 09:30:00,
2013-02-27 03:35:00,27.7,25.9,29.59,NNW,337,2.0,17.7,93,0.00,,,0.00,WUHU21623XXSP,2013-02-27 09:35:00,
2013-02-27 03:40:00,27.7,25.9,29.59,NNE,22,4.7,11.4,93,0.00,,,0.00,WUHU21623XXSP,2013-02-27 09:40:00,
2013-02-27 03:45:00,27.7,25.9,29.59,NE,45,6.9,8.9,93,0.00,,,0.00,WUHU21623XXSP,2013-02-27 09:45:00,
2013-02-27 03:50:00,27.7,25.9,29.59,North,0,9.6,9.6,93,0.00,,,0.00,WUHU21623XXSP,2013-02-27 09:50:00,
2013-02-27 03:55:00,28.0,26.3,29.59,NNE,22,0.0,9.6,93,0.00,,,0.00,WUHU21623XXSP,2013-02-27 09:55:00,
2013-02-27 04:00:00,28.0,26.3,29.59,NNE,22,5.1,11.0,93,0.00,,,0.00,WUHU21623XXSP,2013-02-27 10:00:00,
2013-02-27 04:05:00,28.2,26.5,29.59,NNE,22,10.5,11.0,93,0.00,,,0.00,WUHU21623XXSP,2013-02-27 10:05:00,
2013-02-27 04:10:00,28.0,26.3,29.59,NE,45,10.3,10.5,93,0.00,,,0.00,WUHU21623XXSP,2013-02-27 10:10:00,
2013-02-27 04:15:00,28.0,26.3,29.59,NE,45,0.0,11.4,93,0.00,,,0.00,WUHU21623XXSP,2013-02-27 10:15:00,
2013-02-27 04:20:00,28.0,26.3,29.60,ESE,112,2.9,11.4,93,0.00,,,0.00,WUHU21623XXSP,2013-02-27 10:20:00,
2013-02-27 04:25:00,28.0,26.3,29.60,WNW,292,6.0,6.0,93,0.00,,,0.00,WUHU21623XXSP,2013-02-27 10:25:00,
2013-02-27 04:30:00,28.0,26.3,29.59,WNW,292,6.0,6.0,93,0.00,,,0.00,WUHU21623XXSP,2013-02-27 10:30:00,
2013-02-27 04:35:00,27.7,25.9,29.59,NNE,22,3.6,6.9,93,0.00,,,0.00,WUHU21623XXSP,2013-02-27 10:35:00,
2013-02-27 04:40:00,27.7,25.9,29.59,NNE,22,5.6,6.9,93,0.00,,,0.00,WUHU21623XXSP,2013-02-27 10:40:00,
2013-02-27 04:45:00,27.7,25.9,29.59,North,0,2.5,5.6,93,0.00,,,0.00,WUHU21623XXSP,2013-02-27 10:45:00,
2013-02-27 04:50:00,27.7,25.9,29.59,SW,225,3.8,5.6,93,0.00,,,0.00,WUHU21623XXSP,2013-02-27 10:50:00,
2013-02-27 04:55:00,27.7,25.9,29.59,North,0,0.0,5.6,93,0.00,,,0.00,WUHU21623XXSP,2013-02-27 10:55:00,
2013-02-27 05:00:00,27.7,25.9,29.59,NE,45,10.5,10.5,93,0.00,,,0.00,WUHU21623XXSP,2013-02-27 11:00:00,
2013-02-27 05:05:00,27.5,25.7,29.59,ENE,67,5.1,10.5,93,0.00,,,0.00,WUHU21623XXSP,2013-02-27 11:05:00,
2013-02-27 05:10:00,27.5,25.7,29.59,North,0,7.4,10.5,93,0.00,,,0.00,WUHU21623XXSP,2013-02-27 11:10:00,
2013-02-27 05:15:00,27.5,25.7,29.59,NNE,22,2.2,7.4,93,0.00,,,0.00,WUHU21623XXSP,2013-02-27 11:15:00,
2013-02-27 05:20:00,27.5,25.7,29.59,NNE,22,6.3,6.3,93,0.00,,,0.00,WUHU21623XXSP,2013-02-27 11:20:00,
2013-02-27 05:25:00,27.5,25.7,29.59,NNW,337,6.0,6.3,93,0.00,,,0.00,WUHU21623XXSP,2013-02-27 11:25:00,
2013-02-27 05:30:00,27.5,25.7,29.59,WSW,247,2.7,6.0,93,0.00,,,0.00,WUHU21623XXSP,2013-02-27 11:30:00,
2013-02-27 05:35:00,27.3,25.6,29.59,NNE,22,3.8,3.8,93,0.00,,,0.00,WUHU21623XXSP,2013-02-27 11:35:00,
2013-02-27 05:40:00,27.3,25.6,29.59,NNE,22,3.8,3.8,93,0.00,,,0.00,WUHU21623XXSP,2013-02-27 11:40:00,
2013-02-27 05:45:00,27.5,25.7,29.59,NNE,22,7.6,7.6,93,0.00,,,0.00,WUHU21623XXSP,2013-02-27 11:45:00,
2013-02-27 05:50:00,27.5,25.7,29.59,North,0,4.5,20.8,93,0.00,,,0.00,WUHU21623XXSP,2013-02-27 11:50:00,
2013-02-27 05:55:00,27.5,25.7,29.60,NNE,22,2.2,20.8,93,0.00,,,0.00,WUHU21623XXSP,2013-02-27 11:55:00,
2013-02-27 06:00:00,27.5,25.7,29.59,NNE,22,6.3,9.8,93,0.00,,,0.00,WUHU21623XXSP,2013-02-27 12:00:00,
2013-02-27 06:05:00,27.5,25.7,29.59,NE,45,6.5,7.4,93,0.00,,,0.00,WUHU21623XXSP,2013-02-27 12:05:00,
2013-02-27 06:10:00,27.5,25.7,29.60,West,270,0.0,12.3,93,0.00,,,0.00,WUHU21623XXSP,2013-02-27 12:10:00,
2013-02-27 06:15:00,27.7,25.9,29.59,WSW,247,0.0,12.3,93,0.00,,,0.00,WUHU21623XXSP,2013-02-27 12:15:00,
2013-02-27 06:20:00,27.7,25.9,29.60,North,0,5.1,5.1,93,0.00,,,0.00,WUHU21623XXSP,2013-02-27 12:20:00,
2013-02-27 06:25:00,27.9,26.1,29.60,North,0,14.3,14.3,93,0.00,,,0.00,WUHU21623XXSP,2013-02-27 12:25:00,
2013-02-27 06:30:00,28.0,26.3,29.60,NNE,22,4.7,14.3,93,0.00,,,0.00,WUHU21623XXSP,2013-02-27 12:30:00,
2013-02-27 06:35:00,28.0,26.3,29.60,NNE,22,4.7,8.9,93,0.00,,,0.00,WUHU21623XXSP,2013-02-27 12:35:00,
2013-02-27 06:40:00,28.0,26.3,29.60,NNE,22,0.0,8.9,93,0.00,,,0.00,WUHU21623XXSP,2013-02-27 12:40:00,
2013-02-27 06:45:00,28.0,26.3,29.60,North,0,9.6,9.6,93,0.00,,,0.00,WUHU21623XXSP,2013-02-27 12:45:00,
2013-02-27 06:50:00,28.0,26.3,29.60,North,0,5.1,9.6,93,0.00,,,0.00,WUHU21623XXSP,2013-02-27 12:50:00,
2013-02-27 06:55:00,28.0,26.3,29.60,East,90,1.8,9.6,93,0.00,,,0.00,WUHU21623XXSP,2013-02-27 12:55:00,
2013-02-27 07:00:00,28.2,26.5,29.60,NNE,22,2.0,2.0,93,0.00,,,0.00,WUHU21623XXSP,2013-02-27 13:00:00,
2013-02-27 07:05:00,28.2,26.5,29.60,NE,45,1.6,4.0,93,0.00,,,0.00,WUHU21623XXSP,2013-02-27 13:05:00,
2013-02-27 07:10:00,28.2,26.5,29.61,NE,45,6.5,6.5,93,0.00,,,0.00,WUHU21623XXSP,2013-02-27 13:10:00,
2013-02-27 07:15:00,28.2,26.2,29.61,NE,45,3.6,6.5,92,0.00,,,0.00,WUHU21623XXSP,2013-02-27 13:15:00,
2013-02-27 07:20:00,28.2,26.2,29.61,NNE,22,6.3,6.9,92,0.00,,,0.00,WUHU21623XXSP,2013-02-27 13:20:00,
2013-02-27 07:25:00,28.2,26.2,29.61,NE,45,2.5,10.3,92,0.00,,,0.00,WUHU21623XXSP,2013-02-27 13:25:00,
2013-02-27 07:30:00,28.2,26.2,29.62,NNE,22,8.9,10.3,92,0.00,,,0.00,WUHU21623XXSP,2013-02-27 13:30:00,
2013-02-27 07:35:00,28.2,26.2,29.62,NNE,22,6.3,13.2,92,0.00,,,0.00,WUHU21623XXSP,2013-02-27 13:35:00,
2013-02-27 07:40:00,28.2,26.2,29.62,NNE,22,12.1,13.2,92,0.00,,,0.00,WUHU21623XXSP,2013-02-27 13:40:00,
2013-02-27 07:45:00,28.6,26.8,29.61,NE,45,8.9,12.1,93,0.00,,,0.00,WUHU21623XXSP,2013-02-27 13:45:00,
2013-02-27 07:50:00,28.6,26.8,29.62,NNE,22,12.8,16.6,93,0.00,,,0.00,WUHU21623XXSP,2013-02-27 13:50:00,
2013-02-27 07:55:00,28.8,27.0,29.62,North,0,13.0,16.6,93,0.00,,,0.00,WUHU21623XXSP,2013-02-27 13:55:00,
2013-02-27 08:00:00,28.8,27.0,29.62,ENE,67,6.0,13.0,93,0.00,,,0.00,WUHU21623XXSP,2013-02-27 14:00:00,
2013-02-27 08:05:00,28.8,27.0,29.62,NW,315,3.8,6.0,93,0.00,,,0.00,WUHU21623XXSP,2013-02-27 14:05:00,
2013-02-27 08:10:00,28.8,27.0,29.62,WSW,247,6.5,17.0,93,0.00,,,0.00,WUHU21623XXSP,2013-02-27 14:10:00,
2013-02-27 08:15:00,28.9,26.9,29.62,North,0,8.3,17.0,92,0.00,,,0.00,WUHU21623XXSP,2013-02-27 14:15:00,
2013-02-27 08:20:00,29.1,27.1,29.62,NE,45,8.9,11.4,92,0.00,,,0.00,WUHU21623XXSP,2013-02-27 14:20:00,
2013-02-27 08:25:00,29.1,27.1,29.62,NE,45,8.9,11.4,92,0.00,,,0.00,WUHU21623XXSP,2013-02-27 14:25:00,
2013-02-27 08:30:00,29.1,27.1,29.62,NNE,22,13.4,13.4,92,0.00,,,0.00,WUHU21623XXSP,2013-02-27 14:30:00,
2013-02-27 08:35:00,29.1,27.1,29.62,NNE,22,9.6,13.4,92,0.00,,,0.00,WUHU21623XXSP,2013-02-27 14:35:00,
2013-02-27 08:40:00,29.1,27.1,29.62,NNE,22,7.8,9.6,92,0.00,,,0.00,WUHU21623XXSP,2013-02-27 14:40:00,
2013-02-27 08:45:00,29.1,27.1,29.62,NNE,22,7.8,7.8,92,0.00,,,0.00,WUHU21623XXSP,2013-02-27 14:45:00,
2013-02-27 08:50:00,29.1,27.1,29.62,NNE,22,6.7,20.1,92,0.00,,,0.00,WUHU21623XXSP,2013-02-27 14:50:00,
2013-02-27 08:55:00,29.1,27.1,29.62,NE,45,10.3,20.1,92,0.00,,,0.00,WUHU21623XXSP,2013-02-27 14:55:00,
2013-02-27 09:00:00,29.3,27.1,29.62,NNE,22,11.2,11.2,92,0.00,,,0.00,WUHU21623XXSP,2013-02-27 15:00:00,
2013-02-27 09:05:00,29.5,27.5,29.62,NE,45,12.1,12.1,92,0.00,,,0.00,WUHU21623XXSP,2013-02-27 15:05:00,
2013-02-27 09:10:00,29.5,27.5,29.62,NE,45,12.1,12.1,92,0.00,,,0.00,WUHU21623XXSP,2013-02-27 15:10:00,
2013-02-27 09:15:00,29.5,27.5,29.62,NNE,22,7.4,12.1,92,0.00,,,0.00,WUHU21623XXSP,2013-02-27 15:15:00,
2013-02-27 09:20:00,29.7,27.5,29.62,NNE,22,13.0,13.0,92,0.00,,,0.00,WUHU21623XXSP,2013-02-27 15:20:00,
2013-02-27 09:25:00,29.8,27.8,29.62,NNE,22,4.9,13.0,92,0.00,,,0.00,WUHU21623XXSP,2013-02-27 15:25:00,
2013-02-27 09:30:00,29.8,27.8,29.62,ENE,67,4.5,13.0,92,0.00,,,0.00,WUHU21623XXSP,2013-02-27 15:30:00,
2013-02-27 09:35:00,30.0,28.0,29.62,NE,45,2.5,7.6,92,0.00,,,0.00,WUHU21623XXSP,2013-02-27 15:35:00,
2013-02-27 09:40:00,30.2,28.2,29.62,ENE,67,2.0,7.6,92,0.00,,,0.00,WUHU21623XXSP,2013-02-27 15:40:00,
2013-02-27 09:45:00,30.4,28.4,29.62,ENE,67,3.4,5.8,92,0.00,,,0.00,WUHU21623XXSP,2013-02-27 15:45:00,
2013-02-27 09:50:00,31.1,29.1,29.62,West,270,0.0,5.8,92,0.00,,,0.00,WUHU21623XXSP,2013-02-27 15:50:00,
2013-02-27 09:55:00,30.9,28.9,29.61,NNW,337,7.2,7.2,92,0.00,,,0.00,WUHU21623XXSP,2013-02-27 15:55:00,
2013-02-27 10:00:00,30.7,28.7,29.61,NNE,22,11.2,11.2,92,0.00,,,0.00,WUHU21623XXSP,2013-02-27 16:00:00,
2013-02-27 10:05:00,30.9,28.9,29.61,North,0,6.7,11.2,92,0.00,,,0.00,WUHU21623XXSP,2013-02-27 16:05:00,
2013-02-27 10:10:00,30.9,28.9,29.61,North,0,6.7,6.7,92,0.00,,,0.00,WUHU21623XXSP,2013-02-27 16:10:00,
2013-02-27 10:15:00,30.9,28.9,29.60,NNE,22,10.5,10.5,92,0.00,,,0.00,WUHU21623XXSP,2013-02-27 16:15:00,
2013-02-27 10:20:00,30.9,28.9,29.60,ENE,67,4.3,10.5,92,0.00,,,0.00,WUHU21623XXSP,2013-02-27 16:20:00,
2013-02-27 10:25:00,30.9,28.9,29.60,NE,45,4.0,8.1,92,0.00,,,0.00,WUHU21623XXSP,2013-02-27 16:25:00,
2013-02-27 10:31:00,30.9,28.9,29.61,North,0,4.3,10.3,92,0.00,,,0.00,WUHU21623XXSP,2013-02-27 16:31:00,
2013-02-27 10:36:00,31.3,29.0,29.61,NNE,22,2.2,10.3,91,0.00,,,0.00,WUHU21623XXSP,2013-02-27 16:36:00,
2013-02-27 10:41:00,31.3,29.3,29.60,NE,45,10.7,10.7,92,0.00,,,0.00,WUHU21623XXSP,2013-02-27 16:41:00,
2013-02-27 10:46:00,31.1,28.8,29.61,NNE,22,8.1,10.7,91,0.00,,,0.00,WUHU21623XXSP,2013-02-27 16:46:00,
2013-02-27 10:51:00,31.3,29.3,29.61,NE,45,6.0,8.1,92,0.00,,,0.00,WUHU21623XXSP,2013-02-27 16:51:00,
2013-02-27 10:55:00,31.1,28.8,29.61,NNE,22,10.3,10.3,91,0.00,,,0.00,WUHU21623XXSP,2013-02-27 16:55:00,
2013-02-27 11:00:00,30.9,28.9,29.61,NNE,22,11.9,11.9,92,0.00,,,0.00,WUHU21623XXSP,2013-02-27 17:00:00,
2013-02-27 11:05:00,30.9,28.9,29.60,NNE,22,7.8,11.9,92,0.00,,,0.00,WUHU21623XXSP,2013-02-27 17:05:00,
2013-02-27 11:10:00,30.9,28.9,29.61,NE,45,15.2,15.2,92,0.00,,,0.00,WUHU21623XXSP,2013-02-27 17:10:00,
2013-02-27 11:15:00,31.1,28.8,29.61,ENE,67,4.5,15.2,91,0.00,,,0.00,WUHU21623XXSP,2013-02-27 17:15:00,
2013-02-27 11:20:00,31.1,28.8,29.61,NE,45,3.6,15.4,91,0.00,,,0.00,WUHU21623XXSP,2013-02-27 17:20:00,
2013-02-27 11:25:00,31.1,28.8,29.62,NNW,337,4.0,15.4,91,0.00,,,0.00,WUHU21623XXSP,2013-02-27 17:25:00,
2013-02-27 11:30:00,31.3,29.0,29.62,West,270,3.6,7.6,91,0.00,,,0.00,WUHU21623XXSP,2013-02-27 17:30:00,
2013-02-27 11:35:00,31.6,29.4,29.62,North,0,7.6,7.6,91,0.00,,,0.00,WUHU21623XXSP,2013-02-27 17:35:00,
2013-02-27 11:40:00,31.8,29.3,29.62,North,0,5.8,7.6,90,0.00,,,0.00,WUHU21623XXSP,2013-02-27 17:40:00,
2013-02-27 11:45:00,31.8,29.3,29.62,NNE,22,7.6,9.4,90,0.00,,,0.00,WUHU21623XXSP,2013-02-27 17:45:00,
2013-02-27 11:50:00,31.8,29.3,29.62,NE,45,6.9,9.4,90,0.00,,,0.00,WUHU21623XXSP,2013-02-27 17:50:00,
2013-02-27 11:55:00,31.8,29.3,29.62,North,0,6.9,6.9,90,0.00,,,0.00,WUHU21623XXSP,2013-02-27 17:55:00,
2013-02-27 12:00:00,31.6,29.4,29.61,NE,45,10.3,11.0,91,0.00,,,0.00,WUHU21623XXSP,2013-02-27 18:00:00,
2013-02-27 12:05:00,31.8,29.3,29.62,NNE,22,2.0,11.0,90,0.00,,,0.00,WUHU21623XXSP,2013-02-27 18:05:00,
2013-02-27 12:10:00,32.2,29.6,29.62,ENE,67,2.5,2.5,90,0.00,,,0.00,WUHU21623XXSP,2013-02-27 18:10:00,
2013-02-27 12:15:00,31.8,29.6,29.62,NNE,22,6.7,10.7,91,0.00,,,0.00,WUHU21623XXSP,2013-02-27 18:15:00,
2013-02-27 12:20:00,32.2,29.6,29.62,North,0,11.9,11.9,90,0.00,,,0.00,WUHU21623XXSP,2013-02-27 18:20:00,
2013-02-27 12:25:00,32.2,29.6,29.62,North,0,0.0,11.9,90,0.00,,,0.00,WUHU21623XXSP,2013-02-27 18:25:00,
2013-02-27 12:30:00,32.4,30.1,29.62,WNW,292,1.8,5.8,91,0.00,,,0.00,WUHU21623XXSP,2013-02-27 18:30:00,
2013-02-27 12:35:00,32.4,29.9,29.62,ENE,67,3.1,4.7,91,0.00,,,0.00,WUHU21623XXSP,2013-02-27 18:35:00,
2013-02-27 12:40:00,32.2,29.9,29.61,NNE,22,13.2,13.2,91,0.00,,,0.00,WUHU21623XXSP,2013-02-27 18:40:00,
2013-02-27 12:45:00,32.7,30.4,29.61,ENE,67,5.6,13.2,91,0.02,,,0.02,WUHU21623XXSP,2013-02-27 18:45:00,
2013-02-27 12:50:00,32.7,30.4,29.61,West,270,2.0,5.6,91,0.02,,,0.02,WUHU21623XXSP,2013-02-27 18:50:00,
2013-02-27 12:55:00,32.7,30.1,29.61,North,0,3.6,3.6,90,0.04,,,0.04,WUHU21623XXSP,2013-02-27 18:55:00,
2013-02-27 13:00:00,32.9,30.5,29.61,West,270,6.5,6.5,91,0.04,,,0.04,WUHU21623XXSP,2013-02-27 19:00:00,
2013-02-27 13:05:00,32.7,30.4,29.61,NW,315,6.0,11.2,91,0.04,,,0.04,WUHU21623XXSP,2013-02-27 19:05:00,
2013-02-27 13:10:00,33.3,30.5,29.61,NNW,337,4.0,11.2,90,0.04,,,0.04,WUHU21623XXSP,2013-02-27 19:10:00,
2013-02-27 13:15:00,33.3,30.6,29.62,West,270,2.7,11.9,90,0.06,,,0.06,WUHU21623XXSP,2013-02-27 19:15:00,
2013-02-27 13:20:00,33.1,30.8,29.61,NW,315,0.0,11.9,90,0.06,,,0.06,WUHU21623XXSP,2013-02-27 19:20:00,
2013-02-27 13:25:00,33.1,30.5,29.61,ENE,67,4.5,8.9,90,0.06,,,0.06,WUHU21623XXSP,2013-02-27 19:25:00,
2013-02-27 13:30:00,33.1,30.7,29.62,North,0,2.2,8.9,91,0.08,,,0.08,WUHU21623XXSP,2013-02-27 19:30:00,
2013-02-27 13:35:00,32.9,30.5,29.62,North,0,4.7,5.1,91,0.08,,,0.08,WUHU21623XXSP,2013-02-27 19:35:00,
2013-02-27 13:41:00,32.7,30.4,29.62,North,0,1.8,4.7,91,0.08,,,0.08,WUHU21623XXSP,2013-02-27 19:41:00,
2013-02-27 13:46:00,33.1,30.7,29.62,NNW,337,3.8,7.2,91,0.08,,,0.10,WUHU21623XXSP,2013-02-27 19:46:00,
2013-02-27 13:51:00,32.9,30.7,29.62,NNW,337,3.8,7.2,91,0.08,,,0.10,WUHU21623XXSP,2013-02-27 19:51:00,
2013-02-27 13:56:00,33.1,30.7,29.62,NE,45,2.2,4.3,91,0.06,,,0.10,WUHU21623XXSP,2013-02-27 19:56:00,
2013-02-27 14:01:00,33.1,30.7,29.62,NW,315,0.0,4.3,91,0.06,,,0.10,WUHU21623XXSP,2013-02-27 20:01:00,
2013-02-27 14:06:00,33.3,30.9,29.62,NNE,22,0.0,5.1,91,0.06,,,0.10,WUHU21623XXSP,2013-02-27 20:06:00,
2013-02-27 14:11:00,32.9,30.5,29.62,NNE,22,3.6,8.3,91,0.04,,,0.10,WUHU21623XXSP,2013-02-27 20:11:00,
2013-02-27 14:16:00,32.9,30.5,29.63,North,0,0.0,8.3,91,0.04,,,0.10,WUHU21623XXSP,2013-02-27 20:16:00,
2013-02-27 14:21:00,33.1,30.7,29.62,NE,45,0.0,5.4,91,0.04,,,0.10,WUHU21623XXSP,2013-02-27 20:21:00,
2013-02-27 14:26:00,33.4,31.0,29.62,WNW,292,0.0,5.4,91,0.02,,,0.10,WUHU21623XXSP,2013-02-27 20:26:00,
2013-02-27 14:31:00,33.4,31.0,29.63,West,270,3.1,6.5,91,0.04,,,0.12,WUHU21623XXSP,2013-02-27 20:31:00,
2013-02-27 14:36:00,33.6,31.2,29.63,North,0,1.3,6.5,91,0.04,,,0.12,WUHU21623XXSP,2013-02-27 20:36:00,
2013-02-27 14:41:00,34.0,31.2,29.62,West,270,0.0,9.6,91,0.02,,,0.12,WUHU21623XXSP,2013-02-27 20:41:00,
2013-02-27 14:46:00,34.2,31.7,29.63,West,270,0.0,9.6,91,0.02,,,0.12,WUHU21623XXSP,2013-02-27 20:46:00,
2013-02-27 14:51:00,34.2,31.7,29.63,NNE,22,12.3,12.3,91,0.02,,,0.12,WUHU21623XXSP,2013-02-27 20:51:00,
2013-02-27 14:56:00,33.8,31.4,29.63,NNW,337,4.9,12.3,91,0.02,,,0.12,WUHU21623XXSP,2013-02-27 20:56:00,
2013-02-27 15:01:00,34.0,31.6,29.64,North,0,0.0,12.3,91,0.02,,,0.12,WUHU21623XXSP,2013-02-27 21:01:00,
2013-02-27 15:06:00,33.8,31.4,29.64,WNW,292,2.5,3.4,91,0.02,,,0.12,WUHU21623XXSP,2013-02-27 21:06:00,
2013-02-27 15:11:00,33.6,31.2,29.64,WNW,292,1.1,3.4,91,0.02,,,0.12,WUHU21623XXSP,2013-02-27 21:11:00,
2013-02-27 15:16:00,33.6,31.2,29.64,North,0,1.8,2.2,91,0.02,,,0.12,WUHU21623XXSP,2013-02-27 21:16:00,
2013-02-27 15:21:00,33.6,31.2,29.64,WSW,247,0.0,3.1,91,0.04,,,0.14,WUHU21623XXSP,2013-02-27 21:21:00,
2013-02-27 15:26:00,33.6,31.2,29.64,North,0,3.4,3.4,91,0.02,,,0.14,WUHU21623XXSP,2013-02-27 21:26:00,
2013-02-27 15:31:00,33.3,31.0,29.64,NNW,337,2.2,3.4,91,0.02,,,0.14,WUHU21623XXSP,2013-02-27 21:31:00,
2013-02-27 15:36:00,33.3,30.9,29.64,NNE,22,0.0,3.4,91,0.02,,,0.14,WUHU21623XXSP,2013-02-27 21:36:00,
2013-02-27 15:41:00,33.6,31.2,29.65,NNE,22,3.4,3.4,91,0.02,,,0.14,WUHU21623XXSP,2013-02-27 21:41:00,
2013-02-27 15:46:00,33.4,31.0,29.65,NNE,22,2.2,3.4,91,0.02,,,0.14,WUHU21623XXSP,2013-02-27 21:46:00,
2013-02-27 15:51:00,33.3,31.1,29.65,NNE,22,3.8,3.8,92,0.02,,,0.14,WUHU21623XXSP,2013-02-27 21:51:00,
2013-02-27 15:56:00,33.3,31.1,29.65,NNE,22,6.9,6.9,92,0.02,,,0.14,WUHU21623XXSP,2013-02-27 21:56:00,
2013-02-27 16:01:00,33.3,31.1,29.65,NW,315,0.0,6.9,92,0.02,,,0.14,WUHU21623XXSP,2013-02-27 22:01:00,
2013-02-27 16:06:00,33.4,31.0,29.65,NW,315,0.0,0.0,91,0.02,,,0.14,WUHU21623XXSP,2013-02-27 22:06:00,
2013-02-27 16:11:00,33.4,31.0,29.66,WNW,292,0.0,1.3,91,0.02,,,0.14,WUHU21623XXSP,2013-02-27 22:11:00,
2013-02-27 16:16:00,33.4,31.0,29.66,NNE,22,0.0,2.2,91,0.02,,,0.14,WUHU21623XXSP,2013-02-27 22:16:00,
2013-02-27 16:21:00,33.4,31.0,29.66,NNW,337,2.5,2.5,91,0.00,,,0.14,WUHU21623XXSP,2013-02-27 22:21:00,
2013-02-27 16:26:00,33.1,30.9,29.66,West,270,0.0,2.5,91,0.00,,,0.14,WUHU21623XXSP,2013-02-27 22:26:00,
2013-02-27 16:31:00,32.9,30.5,29.66,NE,45,1.8,1.8,91,0.00,,,0.14,WUHU21623XXSP,2013-02-27 22:31:00,
2013-02-27 16:36:00,32.5,30.6,29.66,NNW,337,0.0,1.8,92,0.00,,,0.14,WUHU21623XXSP,2013-02-27 22:36:00,
2013-02-27 16:41:00,32.2,30.1,29.67,North,0,0.0,0.0,92,0.00,,,0.14,WUHU21623XXSP,2013-02-27 22:41:00,
2013-02-27 16:46:00,32.2,30.1,29.67,NE,45,0.0,1.8,92,0.00,,,0.14,WUHU21623XXSP,2013-02-27 22:46:00,
2013-02-27 16:51:00,32.0,30.1,29.67,NNW,337,0.0,1.8,92,0.00,,,0.14,WUHU21623XXSP,2013-02-27 22:51:00,
2013-02-27 16:56:00,31.8,29.8,29.67,NNW,337,0.0,7.2,92,0.00,,,0.14,WUHU21623XXSP,2013-02-27 22:56:00,
2013-02-27 17:01:00,31.8,29.8,29.67,NE,45,5.1,7.2,92,0.00,,,0.14,WUHU21623XXSP,2013-02-27 23:01:00,
2013-02-27 17:06:00,31.8,29.8,29.67,WSW,247,1.6,5.1,92,0.00,,,0.14,WUHU21623XXSP,2013-02-27 23:06:00,
2013-02-27 17:11:00,31.8,29.8,29.67,North,0,0.0,1.6,92,0.00,,,0.14,WUHU21623XXSP,2013-02-27 23:11:00,
2013-02-27 17:16:00,31.6,29.6,29.68,NW,315,0.0,1.6,92,0.00,,,0.14,WUHU21623XXSP,2013-02-27 23:16:00,
2013-02-27 17:21:00,31.6,29.9,29.67,NW,315,0.0,0.0,93,0.00,,,0.14,WUHU21623XXSP,2013-02-27 23:21:00,
2013-02-27 17:26:00,31.6,29.9,29.68,North,0,0.0,0.0,93,0.00,,,0.14,WUHU21623XXSP,2013-02-27 23:26:00,
2013-02-27 17:31:00,31.3,29.5,29.68,North,0,0.0,1.3,93,0.00,,,0.14,WUHU21623XXSP,2013-02-27 23:31:00,
2013-02-27 17:36:00,31.3,29.5,29.68,NNE,22,0.0,2.0,93,0.00,,,0.14,WUHU21623XXSP,2013-02-27 23:36:00,
2013-02-27 17:41:00,31.3,29.5,29.68,NNW,337,0.0,2.0,93,0.00,,,0.14,WUHU21623XXSP,2013-02-27 23:41:00,
2013-02-27 17:46:00,31.3,29.5,29.68,NW,315,0.0,0.0,93,0.00,,,0.14,WUHU21623XXSP,2013-02-27 23:46:00,
2013-02-27 17:51:00,31.3,29.5,29.69,WNW,292,0.0,0.0,93,0.00,,,0.14,WUHU21623XXSP,2013-02-27 23:51:00,
2013-02-27 17:56:00,31.3,29.5,29.68,WNW,292,0.0,0.0,93,0.00,,,0.14,WUHU21623XXSP,2013-02-27 23:56:00,
2013-02-27 18:01:00,31.3,29.5,29.69,WNW,292,0.0,0.0,93,0.00,,,0.14,WUHU21623XXSP,2013-02-28 00:01:00,
2013-02-27 18:06:00,31.1,29.3,29.69,West,270,0.0,0.0,93,0.00,,,0.14,WUHU21623XXSP,2013-02-28 00:06:00,
2013-02-27 18:11:00,31.1,29.3,29.69,West,270,0.0,0.0,93,0.00,,,0.14,WUHU21623XXSP,2013-02-28 00:11:00,
2013-02-27 18:16:00,30.9,29.2,29.70,NNE,22,0.0,0.0,93,0.00,,,0.14,WUHU21623XXSP,2013-02-28 00:16:00,
2013-02-27 18:21:00,30.9,29.2,29.70,West,270,0.0,0.0,93,0.00,,,0.14,WUHU21623XXSP,2013-02-28 00:21:00,
2013-02-27 18:26:00,30.9,29.2,29.70,NNE,22,0.9,0.9,93,0.00,,,0.14,WUHU21623XXSP,2013-02-28 00:26:00,
2013-02-27 18:31:00,30.9,29.2,29.70,NNE,22,2.7,2.7,93,0.00,,,0.14,WUHU21623XXSP,2013-02-28 00:31:00,
2013-02-27 18:36:00,30.9,29.2,29.70,NNW,337,0.0,2.7,93,0.00,,,0.14,WUHU21623XXSP,2013-02-28 00:36:00,
2013-02-27 18:41:00,30.9,29.2,29.70,NW,315,0.0,0.0,93,0.00,,,0.14,WUHU21623XXSP,2013-02-28 00:41:00,
2013-02-27 18:46:00,30.9,29.2,29.70,SW,225,0.0,4.5,93,0.00,,,0.14,WUHU21623XXSP,2013-02-28 00:46:00,
2013-02-27 18:51:00,30.9,29.2,29.70,WNW,292,0.0,4.5,93,0.00,,,0.14,WUHU21623XXSP,2013-02-28 00:51:00,
2013-02-27 18:56:00,30.9,29.2,29.71,North,0,3.1,3.1,93,0.00,,,0.14,WUHU21623XXSP,2013-02-28 00:56:00,
2013-02-27 19:01:00,30.7,29.0,29.71,North,0,2.0,3.1,93,0.00,,,0.14,WUHU21623XXSP,2013-02-28 01:01:00,
2013-02-27 19:06:00,30.9,29.4,29.71,North,0,0.0,2.0,94,0.00,,,0.14,WUHU21623XXSP,2013-02-28 01:06:00,
2013-02-27 19:11:00,30.9,29.4,29.71,NNW,337,0.0,0.0,94,0.00,,,0.14,WUHU21623XXSP,2013-02-28 01:11:00,
2013-02-27 19:16:00,30.7,29.0,29.71,NNW,337,0.0,0.0,93,0.00,,,0.14,WUHU21623XXSP,2013-02-28 01:16:00,
2013-02-27 19:21:00,30.9,29.4,29.71,WNW,292,0.0,0.0,94,0.00,,,0.14,WUHU21623XXSP,2013-02-28 01:21:00,
2013-02-27 19:26:00,30.9,29.4,29.71,NNW,337,0.0,0.0,94,0.00,,,0.14,WUHU21623XXSP,2013-02-28 01:26:00,
2013-02-27 19:31:00,30.9,29.4,29.71,North,0,0.0,0.0,94,0.00,,,0.14,WUHU21623XXSP,2013-02-28 01:31:00,
2013-02-27 19:36:00,31.1,29.6,29.71,ESE,112,0.0,4.7,94,0.00,,,0.14,WUHU21623XXSP,2013-02-28 01:36:00,
2013-02-27 19:41:00,31.1,29.6,29.71,NE,45,0.0,4.7,94,0.00,,,0.14,WUHU21623XXSP,2013-02-28 01:41:00,
2013-02-27 19:46:00,31.1,29.6,29.72,NW,315,0.0,2.2,94,0.00,,,0.14,WUHU21623XXSP,2013-02-28 01:46:00,
2013-02-27 19:51:00,31.1,29.6,29.72,NE,45,0.0,2.2,94,0.00,,,0.14,WUHU21623XXSP,2013-02-28 01:51:00,
2013-02-27 19:56:00,31.1,29.6,29.71,NW,315,0.0,0.0,94,0.00,,,0.14,WUHU21623XXSP,2013-02-28 01:56:00,
2013-02-27 20:01:00,31.1,29.6,29.72,NW,315,0.0,0.0,94,0.00,,,0.14,WUHU21623XXSP,2013-02-28 02:01:00,
2013-02-27 20:06:00,30.9,29.4,29.72,NE,45,0.0,3.4,94,0.00,,,0.14,WUHU21623XXSP,2013-02-28 02:06:00,
2013-02-27 20:11:00,30.9,29.4,29.72,NNW,337,5.4,5.4,94,0.00,,,0.14,WUHU21623XXSP,2013-02-28 02:11:00,
2013-02-27 20:16:00,30.9,29.4,29.72,NNW,337,0.0,5.4,94,0.00,,,0.14,WUHU21623XXSP,2013-02-28 02:16:00,
2013-02-27 20:21:00,30.9,29.4,29.72,WSW,247,0.0,0.0,94,0.00,,,0.14,WUHU21623XXSP,2013-02-28 02:21:00,
2013-02-27 20:26:00,30.9,29.4,29.72,ENE,67,3.4,3.4,94,0.00,,,0.14,WUHU21623XXSP,2013-02-28 02:26:00,
2013-02-27 20:31:00,30.9,29.4,29.72,NNE,22,0.0,3.4,94,0.00,,,0.14,WUHU21623XXSP,2013-02-28 02:31:00,
2013-02-27 20:36:00,30.9,29.4,29.72,WNW,292,0.0,0.0,94,0.00,,,0.14,WUHU21623XXSP,2013-02-28 02:36:00,
2013-02-27 20:41:00,30.9,29.4,29.72,WNW,292,0.0,0.0,94,0.00,,,0.14,WUHU21623XXSP,2013-02-28 02:41:00,
2013-02-27 20:46:00,30.9,29.4,29.72,North,0,0.0,0.0,94,0.00,,,0.14,WUHU21623XXSP,2013-02-28 02:46:00,
2013-02-27 20:51:00,30.9,29.4,29.72,NNE,22,0.0,0.0,94,0.00,,,0.14,WUHU21623XXSP,2013-02-28 02:51:00,
2013-02-27 20:56:00,30.9,29.4,29.72,WNW,292,0.0,0.0,94,0.00,,,0.14,WUHU21623XXSP,2013-02-28 02:56:00,
2013-02-27 21:01:00,30.9,29.4,29.72,NNE,22,2.5,2.5,94,0.00,,,0.14,WUHU21623XXSP,2013-02-28 03:01:00,
2013-02-27 21:06:00,30.9,29.4,29.72,NNE,22,7.2,7.2,94,0.00,,,0.14,WUHU21623XXSP,2013-02-28 03:06:00,
2013-02-27 21:11:00,30.9,29.4,29.72,North,0,2.2,7.2,94,0.00,,,0.14,WUHU21623XXSP,2013-02-28 03:11:00,
2013-02-27 21:16:00,30.9,29.4,29.72,West,270,0.0,2.5,94,0.00,,,0.14,WUHU21623XXSP,2013-02-28 03:16:00,
2013-02-27 21:21:00,30.9,29.4,29.72,NNW,337,1.8,2.5,94,0.00,,,0.14,WUHU21623XXSP,2013-02-28 03:21:00,
2013-02-27 21:26:00,30.9,29.4,29.72,NNE,22,1.3,9.6,94,0.00,,,0.14,WUHU21623XXSP,2013-02-28 03:26:00,
2013-02-27 21:31:00,30.9,29.4,29.73,WNW,292,0.0,9.6,94,0.00,,,0.14,WUHU21623XXSP,2013-02-28 03:31:00,
2013-02-27 21:36:00,30.9,29.4,29.73,WNW,292,0.0,1.8,94,0.00,,,0.14,WUHU21623XXSP,2013-02-28 03:36:00,
2013-02-27 21:41:00,31.1,29.6,29.73,NW,315,0.0,0.0,94,0.00,,,0.14,WUHU21623XXSP,2013-02-28 03:41:00,
2013-02-27 21:46:00,31.1,29.6,29.73,NE,45,0.0,0.0,94,0.00,,,0.14,WUHU21623XXSP,2013-02-28 03:46:00,
2013-02-27 21:51:00,31.1,29.6,29.73,NNW,337,0.0,0.0,94,0.00,,,0.14,WUHU21623XXSP,2013-02-28 03:51:00,
2013-02-27 21:56:00,31.1,29.6,29.73,NE,45,0.0,0.0,94,0.00,,,0.14,WUHU21623XXSP,2013-02-28 03:56:00,
2013-02-27 22:01:00,31.1,29.6,29.73,ESE,112,0.0,0.0,94,0.00,,,0.14,WUHU21623XXSP,2013-02-28 04:01:00,
2013-02-27 22:06:00,31.1,29.6,29.73,NNE,22,0.9,3.6,94,0.00,,,0.14,WUHU21623XXSP,2013-02-28 04:06:00,
2013-02-27 22:11:00,31.3,29.8,29.73,NE,45,1.6,3.6,94,0.00,,,0.14,WUHU21623XXSP,2013-02-28 04:11:00,
2013-02-27 22:16:00,31.3,29.5,29.73,North,0,2.9,2.9,93,0.00,,,0.14,WUHU21623XXSP,2013-02-28 04:16:00,
2013-02-27 22:21:00,31.3,29.5,29.73,NNE,22,8.7,8.7,93,0.00,,,0.14,WUHU21623XXSP,2013-02-28 04:21:00,
2013-02-27 22:26:00,31.3,29.5,29.74,North,0,0.0,8.7,93,0.00,,,0.14,WUHU21623XXSP,2013-02-28 04:26:00,
2013-02-27 22:31:00,31.5,29.7,29.74,NNE,22,8.9,8.9,93,0.00,,,0.14,WUHU21623XXSP,2013-02-28 04:31:00,
2013-02-27 22:36:00,31.6,29.9,29.74,NNE,22,8.7,8.9,93,0.00,,,0.14,WUHU21623XXSP,2013-02-28 04:36:00,
2013-02-27 22:41:00,31.6,29.6,29.74,West,270,0.0,8.9,92,0.00,,,0.14,WUHU21623XXSP,2013-02-28 04:41:00,
2013-02-27 22:46:00,31.6,29.6,29.74,NNE,22,6.9,6.9,92,0.00,,,0.14,WUHU21623XXSP,2013-02-28 04:46:00,
2013-02-27 22:51:00,31.6,29.6,29.75,NNE,22,0.0,6.9,92,0.00,,,0.14,WUHU21623XXSP,2013-02-28 04:51:00,
2013-02-27 22:56:00,31.6,29.6,29.75,SW,225,0.0,0.0,92,0.00,,,0.14,WUHU21623XXSP,2013-02-28 04:56:00,
2013-02-27 23:00:00,31.6,29.6,29.75,NNE,22,6.5,6.5,92,0.00,,,0.14,WUHU21623XXSP,2013-02-28 05:00:00,
2013-02-27 23:05:00,31.6,29.6,29.75,NNE,22,9.2,9.2,92,0.00,,,0.14,WUHU21623XXSP,2013-02-28 05:05:00,
2013-02-27 23:10:00,31.6,29.4,29.75,SW,225,2.9,9.2,91,0.00,,,0.14,WUHU21623XXSP,2013-02-28 05:10:00,
2013-02-27 23:15:00,31.6,29.4,29.75,NNW,337,7.6,7.6,91,0.00,,,0.14,WUHU21623XXSP,2013-02-28 05:15:00,
2013-02-27 23:20:00,31.6,29.4,29.75,WSW,247,0.0,7.6,91,0.00,,,0.14,WUHU21623XXSP,2013-02-28 05:20:00,
2013-02-27 23:25:00,31.6,29.1,29.75,ESE,112,6.9,6.9,90,0.00,,,0.14,WUHU21623XXSP,2013-02-28 05:25:00,
2013-02-27 23:30:00,31.6,29.1,29.75,West,270,0.0,6.9,90,0.00,,,0.14,WUHU21623XXSP,2013-02-28 05:30:00,
2013-02-27 23:35:00,31.6,29.1,29.75,NNW,337,0.0,6.3,90,0.00,,,0.14,WUHU21623XXSP,2013-02-28 05:35:00,
2013-02-27 23:40:00,31.6,29.1,29.75,NNE,22,0.0,2.2,90,0.00,,,0.14,WUHU21623XXSP,2013-02-28 05:40:00,
2013-02-27 23:45:00,31.3,29.0,29.75,NNE,22,6.3,6.3,91,0.00,,,0.14,WUHU21623XXSP,2013-02-28 05:45:00,
2013-02-27 23:50:00,31.3,29.0,29.75,WSW,247,0.0,6.3,91,0.00,,,0.14,WUHU21623XXSP,2013-02-28 05:50:00,
2013-02-27 23:55:00,31.3,29.0,29.75,North,0,4.5,4.5,91,0.00,,,0.14,WUHU21623XXSP,2013-02-28 05:55:00,